EW1033 Weather Reports


Display with metric or nautical units.
time (UTC)temp
F
wind
direction
speed
MPH
gust
MPH
rain 1hr
in
rain 24hr
in
rain mn
in
humidity
%
barometer
mb
20260503034548 79 0.0 0.0 0.00 0.00 0.00 28 1007.9
20260503033046 79 0.0 0.0 0.00 0.00 0.00 27 1007.9
20260503031545 79 0.0 0.0 0.00 0.00 0.00 27 1007.7
20260503030046 80 0.0 0.0 0.00 0.00 0.00 26 1007.5
20260503024544 80 0.0 0.0 0.00 0.00 0.00 26 1007.3
20260503023044 81 0.0 0.0 0.00 0.00 0.00 25 1007.3
20260503021546 82 0.0 0.0 0.00 0.00 0.00 24 1007.2
20260503020044 83 0.0 0.0 0.00 0.00 0.00 23 1007.2
20260503014542 84 0.0 0.0 0.00 0.00 0.00 21 1007.3
20260503013041 84 0.0 0.0 0.00 0.00 0.00 21 1007.2
20260503011548 85 0.0 0.0 0.00 0.00 0.00 20 1007.3
20260503010041 85 0.0 0.0 0.00 0.00 0.00 20 1007.3
20260503004540 85 0.0 0.0 0.00 0.00 0.00 19 1007.2
20260503003038 86 0.0 0.0 0.00 0.00 0.00 19 1007.1
20260503001538 87 0.0 0.0 0.00 0.00 0.00 19 1007.1
20260503000055 88 0.0 0.0 0.00 0.00 0.00 19 1007.1
20260502234536 87 0.0 0.0 0.00 0.00 0.00 19 1007.2
20260502233033 87 0.0 0.0 0.00 0.00 0.00 16 1007.2
20260502231535 88 0.0 0.0 0.00 0.00 0.00 15 1007.6
20260502230030 87 0.0 0.0 0.00 0.00 0.00 16 1007.6
20260502224528 89 0.0 0.0 0.00 0.00 0.00 15 1007.7
20260502223030 91 0.0 0.0 0.00 0.00 0.00 14 1007.8
20260502221524 89 0.0 0.0 0.00 0.00 0.00 14 1007.8
20260502220021 90 0.0 0.0 0.00 0.00 0.00 14 1008.0
20260502214519 89 0.0 0.0 0.00 0.00 0.00 14 1008.5
20260502213017 89 0.0 0.0 0.00 0.00 0.00 14 1008.6
20260502211514 88 0.0 0.0 0.00 0.00 0.00 15 1008.7
20260502210012 88 0.0 0.0 0.00 0.00 0.00 16 1009.0
20260502204509 88 0.0 0.0 0.00 0.00 0.00 17 1009.2
20260502203007 87 0.0 0.0 0.00 0.00 0.00 18 1009.4
20260502201504 87 0.0 0.0 0.00 0.00 0.00 18 1009.6
20260502200006 85 0.0 0.0 0.00 0.00 0.00 21 1010.0
20260502194503 86 0.0 0.0 0.00 0.00 0.00 20 1010.0
20260502193003 86 0.0 0.0 0.00 0.00 0.00 21 1010.1
20260502191605 87 0.0 0.0 0.00 0.00 0.00 20 1010.3
20260502190100 87 0.0 0.0 0.00 0.00 0.00 22 1010.6
20260502184556 87 0.0 0.0 0.00 0.00 0.00 21 1010.9
20260502183053 86 0.0 0.0 0.00 0.00 0.00 23 1011.1
20260502181549 86 0.0 0.0 0.00 0.00 0.00 23 1011.4
20260502163028 79 0.0 0.0 0.00 0.00 0.00 33 1012.0
20260502161523 78 0.0 0.0 0.00 0.00 0.00 34 1012.1
20260502151532 73 0.0 0.0 0.00 0.00 0.00 39 1012.0
20260502123042 67 0.0 0.0 0.00 0.00 0.00 45 1010.2
20260502121541 67 0.0 0.0 0.00 0.00 0.00 45 1010.0
20260502114534 64 0.0 0.0 0.00 0.00 0.00 43 1010.1
20260502113045 58 0.0 0.0 0.00 0.00 0.00 40 1010.2
20260502111528 56 0.0 0.0 0.00 0.00 0.00 42 1010.4
20260502110034 57 0.0 0.0 0.00 0.00 0.00 42 1010.2
20260502104526 58 0.0 0.0 0.00 0.00 0.00 41 1010.3
20260502103025 56 0.0 0.0 0.00 0.00 0.00 43 1010.1
20260502101525 56 0.0 0.0 0.00 0.00 0.00 42 1009.9
20260502091512 60 0.0 0.0 0.00 0.00 0.00 38 1009.8
20260502070110 63 0.0 0.0 0.00 0.00 0.00 35 1009.9
20260502064615 63 0.0 0.0 0.00 0.00 0.00 34 1009.9
20260502063055 65 0.0 0.0 0.00 0.00 0.00 32 1009.8
20260502061554 66 0.0 0.0 0.00 0.00 0.00 30 1009.6
20260502060054 68 0.0 0.0 0.00 0.00 0.00 29 1009.3
20260502054556 67 0.0 0.0 0.00 0.00 0.00 30 1009.2
20260502053053 65 0.0 0.0 0.00 0.00 0.00 32 1009.2
20260502051553 65 0.0 0.0 0.00 0.00 0.00 32 1009.0
20260502050051 66 0.0 0.0 0.00 0.00 0.00 32 1009.0
20260502044555 67 0.0 0.0 0.00 0.00 0.00 36 1008.8
20260502043051 69 0.0 0.0 0.00 0.00 0.00 29 1008.8
20260502041558 69 0.0 0.0 0.00 0.00 0.00 29 1008.6
20260502040050 69 0.0 0.0 0.00 0.00 0.00 28 1008.4